COSMOS 1275 DEB, 42174

Orbit data source: Space-Track

COSMOS 1275 DEB, 42174 is space debris in LEO originally from a launch on Thu, 04 Jun 1981 UTC launched from the Plesetsk Missile And Space Complex (PKMTR). Debris objects in space refer to the collection of defunct objects orbiting the Earth. Examples of debris include non-operational satellites, rocket bodies, and fragments generated from explosions, collisions, or faulty payload assembly.

Loading next visibility...
Identifier
42174, 1981-053SN
Orbit
LEO
Country
Flag of CISCIS
Related business
Manufacturer
Unknown
Mission
Spacecraft
Bus & Motor
Unknown
Mass
Unknown
Launch date (UTC)
1981-06-04 (44 years ago)
Launch vehicle
Unknown
Launch site
Plesetsk Missile And Space Complex (PKMTR)
Object type
Payload
Rocket body
Debris
Shape & HBR
Unknown shape, 0.1 m
Radar Cross Section
Small (<0.1 m²)

Expand to show TLE details & history
Last TLE update: 7 months ago

TLE from 7 months ago
0 COSMOS 1275 DEB
1 42174U 81053SN  25096.67532851  .00060277  00000-0  93805-2 0  9993
2 42174  82.7547  78.9366 0025818  78.4073 282.0032 14.72449625 56388
Epoch: 2025-04-06T16:12Z
TLE epoch observation values (Epoch: 2025-04-06T16:12:28.383Z)
Latitude
-0.00008°
Longitude
0.61662°
Altitude
652.558 km
Speed
7.533 km/s
True Right ascension
05h 15m 44s
True Declination
0° 00' 00"
Sunlit
Object was in daylight at epoch
Visualization orbit readout
Latitude
Unknown
Longitude
Unknown
Altitude
Unknown
Speed
Unknown
Apparent Right ascension
Unknown
Apparent Declination
Unknown
Sunlit
N/A
Visualization observer readout
Local Sidereal Time
19:51:52
Azimuth
Unknown
Elevation
Unknown
Doppler factor
Unknown
Orbital elements
Apogee altitude
668.428 km
Perigee altitude
632.136 km
Semi-major axis
7,028.419 km
Eccentricity
0.00258
Inclination
82.7547°
RAAN
78.9366°
Arg. of periapsis
78.4073°
True anomaly
281.71362°
Mean anomaly
282.0032°
Eccentric anomaly
281.85843°
Mean motion
3.68347 °/min
Orbital period
97.73 mins
BSTAR
0.0093805
Loading maneuver chart data...
Computing Atmospheric mass density...
Loading historical data...
Loading historical data...
Loading historical data...
Loading historical data...
Loading historical data...
Loading historical data...
Loading historical data...

Documentation

Showing up to 5 results
|